Regional Weather Roundup
Issued by NWS Newport/Morehead, NC

Current Version | Previous Version | Graphics & Text | Print | Product List | Glossary On
Versions: 1 2 3 4 5 6 7 8 9 10 11 12 13 14 15 16 17 18 19 20 21 22 23 24 25 26 27 28 29 30 31 32 33 34 35 36 37 38 39 40 41 42 43 44 45 46 47 48 49 50
009 ASUS42 KMHX 301325 RWRMHX WEATHER ROUNDUP FOR EASTERN NORTH CAROLINA NATIONAL WEATHER SERVICE NEWPORT/MOREHEAD CITY NC 900 AM EDT SAT JUL 30 2016 NOTE: "FAIR" INDICATES FEW OR NO CLOUDS BELOW 12,000 FEET WITH NO SIGNIFICANT WEATHER AND/OR OBSTRUCTIONS TO VISIBILITY NCZ015>017-031-032-045>047-102-103-301400- NORTH COAST CITY SKY/WX TMP DP RH WIND PRES REMARKS EDENTON SUNNY 87 74 64 SE3 29.99F ELIZABETH CITY SUNNY 84 74 71 E7 29.99R KITTY HAWK SUNNY 86 82 87 CALM 29.99S HX 104 MANTEO SUNNY 84 75 75 NE5 30.00S $$ NCZ045>047-081-094-103-104-301400- CENTRAL COAST CITY SKY/WX TMP DP RH WIND PRES REMARKS FRISCO SUNNY 85 79 82 SE8 29.98S $$ NCZ095-097-098-100-101-301400- SOUTHERN COAST CITY SKY/WX TMP DP RH WIND PRES REMARKS BEAUFORT PTSUNNY 84 80 88 MISG 29.98R CEDAR ISLAND NOT AVBL JACKSONVILLE CLOUDY 83 76 79 SW3 29.98R PINEY ISLAND NOT AVBL WILMINGTON PTSUNNY 85 79 82 W8 29.99R $$ NCZ011>013-027>030-043-044-078>080-089-090>093-098-301400- COASTAL PLAIN CITY SKY/WX TMP DP RH WIND PRES REMARKS AHOSKIE CLOUDY 80 76 89 CALM 29.99S CLINTON SUNNY 84 77 79 SW3 29.99S ELIZABETHTOWN SUNNY 84 76 77 SW5 29.99R GOLDSBORO MOSUNNY 84 79 83 S5 29.97R GREENVILLE MOSUNNY 86 77 74 S6 30.00S HAVELOCK CLOUDY 84 79 85 CALM 29.99R KENANSVILLE NOT AVBL KINSTON CLOUDY 82 75 78 S3 29.99R NEW BERN CLOUDY 85 77 77 SE3 29.99S RICHLANDS MOSUNNY 86 78 77 SW6 29.99R ROCKY MOUNT CLOUDY 83 77 82 S5 29.98S WASHINGTON SUNNY 84 78 80 SE6 29.98S WHITEVILLE SUNNY 84 77 81 SW5 29.99R $$ AMZ130-135-150-152-154-156-158-170-250-252-270-ANZ085-086-088-633-658-670-301400- MARINE OBSERVATIONS STATION/POSITION TIME TEMP WIND PRES WAVE SWELL AIR SEA DIR/SP/G HT/PER HT/PER (UTC) (F) (DEG/KT/KT) (MB) (FT/S) (FT/S) CHESAPEAKE LIGHT NOT AVBL 64 E VA BEACH 1250 81 83 80/ 4/ 6 1015.6 3/ 7 3/ 7 DUCK 1300 85 77 80/ 1/ 2 1015.1 2 E DUCK 1311 81 N/A 2/ 7 OREGON INLET 1300 81 78 30/ 4/ 5 1015.5 13E OREGON INLT 1300 80 N/A 2/ 5 2/ 5 HATTERAS CG 1300 83 83 110/ 5/ 7 1015.1 DIAMOND BUOY 1250 85 86 80/ 4/ 4 1015.3 2/ 6 2/ 6 CAPE LOOKOUT 1300 83 190/ 3/ 4 1015.1 BEAUFORT LAB 1300 83 83 200/ 4/ 5 1014.6 30 SE NEW RVR IN 1308 84 85 260/ 10/ 14 1015.4 30 SE NEW RVR IN 1225 85 N/A 3/ 6 27 SE WRIGHTSVLE 1308 85 84 240/ 8/ 12 1015.6 5 SE WRIGHTSVLE 1308 82 80 250/ 2/ 4 1016.3 225 S CAPE HAT 1250 84 84 210/ 10/ 12 1018.0 3/ 6 2/ 6 41 SE CHARLESTON 1250 86 86 260/ 14/ 16 1015.6 4/ 6 2/ 8 $$

USA.gov is the U.S. government's official web portal to all federal, state and local government web resources and services.